Weather History for Anchorage, AK

Change the Weather History Date:

Monday, January 14, 2013

  Actual Average Record
Temperature  
Mean Temperature 39 °F 17 °F  
Max Temperature 44 °F 23 °F 47 °F (1917)
Min Temperature 33 °F 11 °F -25 °F (1951)
Degree Days  
Heating Degree Days 26    
Month to date heating degree days 510  
Since 1 July heating degree days 5521  
Cooling Degree Days 0    
Month to date cooling degree days 0  
Year to date cooling degree days 0  
Moisture  
Dew Point 29 °F    
Average Humidity 70    
Maximum Humidity 92    
Minimum Humidity 47    
Precipitation  
Precipitation 0.02 in 0.02 in 0.50 in (1984)
Month to date precipitation 0.46 0.34  
Year to date precipitation 0.46 0.34  
Snow  
Snow 0.00 in 0.30 in 6.30 in (1965)
Month to date snowfall 0.7 5.2  
Since 1 July snowfall 25.6 43.3  
Snow Depth 8.00 in    
Sea Level Pressure  
Sea Level Pressure 29.65 in    
Wind  
Wind Speed 15 mph (South)    
Max Wind Speed 27 mph    
Max Gust Speed 39 mph    
Visibility 10 miles    
Events Rain    
T = Trace of Precipitation, MM = Missing Value Source: NWS Daily Summary

Daily Weather History Graph

Daily Weather History Graph

Search for Another Location

Airport:

Trip Planner

Search our weather history database for the weather conditions in past years. The results will help you decide how hot, cold, wet, or windy it might be!

Date:

Astronomy

Jan. 14, 2013 Rise Set
Actual Time 9:57 AM AKST 4:21 PM AKST
Civil Twilight 9:01 AM AKST 5:17 PM AKST
Nautical Twilight 8:05 AM AKST 6:14 PM AKST
Astronomical Twilight 7:13 AM AKST 7:06 PM AKST
Moon 10:20 AM AKST (1/14) 9:43 PM AKST (1/14)
Length of Visible Light 8h 15m
Length of Day
6h 23m
Waxing Crescent, 12% of the Moon is Illuminated
Jan 14
Waxing Crescent
Jan 18
First Quarter
Jan 26
Full
Feb 3
Last Quarter
Feb 9
New

Hourly Weather History & Observations

Time (AKST) Temp. Windchill Dew Point Humidity Pressure Visibility Wind Dir Wind Speed Gust Speed Precip Events Conditions
12:53 AM 35.1 °F 29.3 °F 33.1 °F 92% 29.62 in 10.0 mi Variable 6.9 mph - 0.00 in Rain Light Rain
1:53 AM 35.1 °F 29.3 °F 33.1 °F 92% 29.60 in 10.0 mi NNW 6.9 mph - 0.00 in   Overcast
2:43 AM 33.8 °F 29.6 °F 33.8 °F 100% 29.57 in 6.0 mi West 4.6 mph - 0.01 in Rain Light Rain
3:53 AM 36.0 °F 30.3 °F 34.0 °F 93% 29.54 in 6.0 mi NW 6.9 mph - 0.01 in Rain Light Rain
4:46 AM 39.2 °F 29.3 °F 33.8 °F 81% 29.51 in 10.0 mi SE 20.7 mph 29.9 mph 0.00 in Rain Light Rain
4:53 AM 39.9 °F 31.8 °F 33.1 °F 77% 29.52 in 10.0 mi SE 15.0 mph 31.1 mph 0.00 in Rain Light Rain
5:53 AM 41.0 °F 33.9 °F 33.1 °F 73% 29.51 in 10.0 mi SE 12.7 mph 26.5 mph 0.00 in Rain Light Rain
6:53 AM 41.0 °F 31.4 °F 32.0 °F 70% 29.51 in 10.0 mi SSE 21.9 mph 32.2 mph 0.00 in Rain Light Rain
7:53 AM 43.0 °F 34.0 °F 30.9 °F 62% 29.50 in 10.0 mi SSE 21.9 mph 34.5 mph 0.00 in   Overcast
8:53 AM 44.1 °F 35.7 °F 30.9 °F 60% 29.50 in 10.0 mi SE 20.7 mph 34.5 mph 0.00 in Rain Light Rain
9:53 AM 44.1 °F 34.6 °F 30.0 °F 58% 29.48 in 10.0 mi SE 26.5 mph 42.6 mph 0.00 in   Mostly Cloudy
10:53 AM 43.0 °F 33.1 °F 28.9 °F 58% 29.51 in 10.0 mi SSE 26.5 mph 39.1 mph N/A   Mostly Cloudy
11:53 AM 44.1 °F 36.5 °F 28.9 °F 55% 29.58 in 10.0 mi South 17.3 mph 25.3 mph N/A   Mostly Cloudy
12:53 PM 42.1 °F 35.2 °F 30.0 °F 62% 29.62 in 10.0 mi South 12.7 mph 25.3 mph N/A   Mostly Cloudy
1:53 PM 44.1 °F 37.7 °F 30.0 °F 58% 29.66 in 10.0 mi SSE 12.7 mph 25.3 mph N/A   Mostly Cloudy
2:53 PM 43.0 °F 37.2 °F 30.9 °F 62% 29.68 in 10.0 mi SSE 10.4 mph 19.6 mph N/A   Mostly Cloudy
3:53 PM 43.0 °F 35.7 °F 30.0 °F 60% 29.71 in 10.0 mi South 15.0 mph 23.0 mph N/A   Mostly Cloudy
4:53 PM 42.1 °F 34.9 °F 30.0 °F 62% 29.72 in 10.0 mi South 13.8 mph 23.0 mph N/A   Mostly Cloudy
5:53 PM 42.1 °F 33.3 °F 28.9 °F 60% 29.74 in 10.0 mi South 19.6 mph 28.8 mph N/A   Mostly Cloudy
6:53 PM 41.0 °F 31.4 °F 27.0 °F 57% 29.78 in 10.0 mi South 21.9 mph 32.2 mph N/A   Mostly Cloudy
7:53 PM 39.0 °F 30.3 °F 26.1 °F 60% 29.80 in 10.0 mi South 16.1 mph 27.6 mph N/A   Scattered Clouds
8:53 PM 37.9 °F 28.9 °F 25.0 °F 60% 29.84 in 10.0 mi South 16.1 mph 32.2 mph N/A   Scattered Clouds
9:53 PM 37.0 °F 27.0 °F 21.9 °F 54% 29.87 in 10.0 mi South 18.4 mph 33.4 mph N/A   Scattered Clouds
10:53 PM 36.0 °F 25.6 °F 17.1 °F 46% 29.89 in 10.0 mi South 18.4 mph 26.5 mph N/A   Clear
11:53 PM 35.1 °F 25.2 °F 16.0 °F 46% 29.91 in 10.0 mi South 16.1 mph 27.6 mph N/A   Clear